DW1970 Bodega Bay CA US current weather conditions

sailwx.info

Wind from 325 at 6 knots

Air temperature 10.0° C
Dewpoint 8.1° C

Last reported at 2017-Apr-27 16:04 UTC.
Time now 2017-Apr-27 16:46 UTC

Location: N 38°23' W 123°04'.
View on Google Maps.

See reports from other nearby stations

  
Tides and Currents Weather Stations Pressure Air Temp Water Temp Dewpoint Dewpoint Depression Visibility Wind Speed Wind Dir Waves Ship Positions
date/time (UTC)wind fromknots sea level pressurealtimeterstation pressurevisibilityair tempwater tempwave heightnotes
2017-Apr-27 16:04 325 6 10.0
2017-Apr-27 15:49 300 9 10.6
2017-Apr-27 15:34 264 1 11.1
2017-Apr-27 15:19 264 2 10.6
2017-Apr-27 15:03 303 0 10.0
2017-Apr-27 14:49 303 4 9.4
2017-Apr-27 14:33 296 2 9.4
2017-Apr-27 14:03 294 0 8.9
2017-Apr-27 13:48 294 8.9
2017-Apr-27 13:34 294 1 8.9
2017-Apr-27 13:18 293 5 8.9
2017-Apr-27 13:03 313 7 8.9
2017-Apr-27 12:48 299 10 8.9
2017-Apr-27 12:33 290 10 8.9
2017-Apr-27 12:18 315 10 8.9
2017-Apr-27 12:03 309 11 8.9
2017-Apr-27 11:48 297 6 8.9
2017-Apr-27 11:33 305 7 9.4
2017-Apr-27 11:18 304 12 9.4
2017-Apr-27 10:48 304 12 9.4
2017-Apr-27 10:33 298 11 9.4
2017-Apr-27 10:18 309 9 9.4
2017-Apr-27 10:03 317 9 10.0
2017-Apr-27 09:48 298 11 10.0
2017-Apr-27 09:33 282 11 9.4
2017-Apr-27 09:18 300 10 10.0
2017-Apr-27 09:03 319 9 10.0
2017-Apr-27 08:48 306 10 10.0
2017-Apr-27 08:33 314 8 10.0
2017-Apr-27 08:18 297 9 10.0
2017-Apr-27 08:03 321 13 10.0
2017-Apr-27 07:48 304 11 9.4
2017-Apr-27 07:33 317 11 10.0
2017-Apr-27 07:18 300 12 10.0
2017-Apr-27 07:03 300 13 10.0
2017-Apr-27 06:48 306 13 9.4
2017-Apr-27 06:33 329 13 9.4
2017-Apr-27 06:18 315 12 9.4
2017-Apr-27 06:03 306 12 10.0
2017-Apr-27 05:48 309 9 10.0
2017-Apr-27 05:18 302 10 10.0
2017-Apr-27 05:03 275 10 10.6
2017-Apr-27 04:48 297 10 10.6
2017-Apr-27 04:33 297 12 10.6
2017-Apr-27 04:03 307 6 10.6
2017-Apr-27 03:48 298 8 10.6
2017-Apr-27 03:32 286 9 11.1
2017-Apr-27 03:17 300 8 11.1
2017-Apr-27 03:02 286 10 11.1
2017-Apr-27 02:48 294 10 11.1
2017-Apr-27 02:32 293 10 11.1
2017-Apr-27 02:17 312 11 11.1
2017-Apr-27 02:02 273 12 11.1
2017-Apr-27 01:47 311 12 11.7
2017-Apr-27 01:32 296 10 11.7
2017-Apr-27 00:47 269 8 12.2
2017-Apr-27 00:32 275 9 12.2
2017-Apr-27 00:17 277 8 12.2
2017-Apr-27 00:02 269 9 12.2
2017-Apr-26 23:47 286 8 12.2
2017-Apr-26 23:17 281 10 12.2
2017-Apr-26 23:02 290 10 12.2
2017-Apr-26 22:32 277 8 12.8
2017-Apr-26 22:17 273 8 12.2
2017-Apr-26 22:02 290 6 12.8
2017-Apr-26 21:47 257 7 12.8
2017-Apr-26 21:32 279 7 12.8
2017-Apr-26 21:17 258 5 12.8
2017-Apr-26 21:02 281 5 12.8
2017-Apr-26 20:47 263 6 12.8
2017-Apr-26 20:32 265 6 13.3
2017-Apr-26 20:17 250 5 13.3
2017-Apr-26 20:02 248 5 12.8
2017-Apr-26 19:47 252 5 12.8
2017-Apr-26 19:32 245 5 13.3
2017-Apr-26 19:02 245 4 13.3
2017-Apr-26 18:47 254 5 12.8
2017-Apr-26 18:32 253 4 12.8
2017-Apr-26 18:17 238 4 13.3
2017-Apr-26 18:02 234 4 12.8
2017-Apr-26 17:47 248 4 12.8
2017-Apr-26 17:32 240 4 12.2
2017-Apr-26 17:17 239 4 12.2
2017-Apr-26 17:02 242 4 12.2
2017-Apr-26 16:47 232 4 12.2
2017-Apr-26 16:32 227 3 12.2
2017-Apr-26 16:17 232 3 12.2
2017-Apr-26 16:02 230 2 12.2
2017-Apr-26 15:32 249 2 12.2
2017-Apr-26 15:17 305 1 12.2
2017-Apr-26 14:47 306 0 11.7
2017-Apr-26 14:32 306 0 11.7
2017-Apr-26 14:17 306 11.7
2017-Apr-26 14:02 306 11.7
2017-Apr-26 13:47 306 11.7
2017-Apr-26 13:32 306 11.1
2017-Apr-26 13:16 306 11.1
2017-Apr-26 13:01 306 11.1
2017-Apr-26 12:47 306 11.1
2017-Apr-26 12:17 306 11.1
2017-Apr-26 12:01 306 11.1
2017-Apr-26 11:46 306 11.1
2017-Apr-26 11:31 306 11.1
2017-Apr-26 11:16 306 11.1
2017-Apr-26 11:01 306 11.1
2017-Apr-26 10:46 306 11.1
2017-Apr-26 10:16 306 11.1
2017-Apr-26 10:01 306 11.1
2017-Apr-26 09:46 306 11.1
2017-Apr-26 09:31 306 11.1
2017-Apr-26 09:16 306 11.1
2017-Apr-26 09:01 306 11.1
2017-Apr-26 08:46 306 11.1
2017-Apr-26 08:31 306 11.1
2017-Apr-26 08:16 306 11.1
2017-Apr-26 08:01 306 11.1
2017-Apr-26 07:46 306 11.1
2017-Apr-26 07:31 306 11.1
2017-Apr-26 07:16 306 11.1
2017-Apr-26 06:46 306 11.1
2017-Apr-26 06:31 306 11.1
2017-Apr-26 06:16 306 11.1
2017-Apr-26 06:01 306 0 11.1
2017-Apr-26 05:46 306 2 11.1
2017-Apr-26 05:31 306 11.1
2017-Apr-26 05:16 306 11.1
2017-Apr-26 05:01 306 11.1
2017-Apr-26 04:46 306 0 11.1
2017-Apr-26 04:31 306 10.6
2017-Apr-26 04:16 306 10.6
2017-Apr-26 04:01 306 2 10.6
2017-Apr-26 03:46 305 0 10.6
2017-Apr-26 03:31 288 3 10.6
2017-Apr-26 03:01 291 5 11.1
2017-Apr-26 02:46 300 6 11.1
2017-Apr-26 02:31 292 7 11.1
2017-Apr-26 02:16 298 7 11.7
2017-Apr-26 02:01 291 6 11.7
2017-Apr-26 01:46 292 6 11.7
2017-Apr-26 01:31 279 6 11.7
2017-Apr-26 01:16 288 6 11.7
2017-Apr-26 01:01 304 6 11.7
2017-Apr-26 00:46 281 6 11.7
2017-Apr-26 00:31 298 6 11.7
2017-Apr-26 00:16 294 6 12.2
2017-Apr-26 00:01 292 7 12.2
2017-Apr-25 23:46 288 7 12.2
2017-Apr-25 23:16 257 7 12.8
2017-Apr-25 23:01 288 6 12.8
2017-Apr-25 22:46 269 5 12.8
2017-Apr-25 22:31 273 5 12.8
2017-Apr-25 22:16 258 4 12.8
2017-Apr-25 22:01 296 5 13.3
2017-Apr-25 21:46 280 4 12.8
2017-Apr-25 21:31 253 5 13.3
2017-Apr-25 21:16 242 5 12.8
2017-Apr-25 21:01 297 6 12.8
2017-Apr-25 20:46 292 5 13.3
2017-Apr-25 20:31 276 6 13.3
2017-Apr-25 20:16 294 5 13.9
2017-Apr-25 20:01 279 9 12.8
2017-Apr-25 19:46 265 5 13.3
2017-Apr-25 19:31 304 6 12.8
2017-Apr-25 19:16 279 8 12.8
2017-Apr-25 18:46 306 10 12.2
2017-Apr-25 18:15 296 8 12.2
2017-Apr-25 18:01 289 7 12.2
2017-Apr-25 17:46 290 8 11.7
2017-Apr-25 17:30 287 10 11.1
2017-Apr-25 17:15 308 7 11.1
2017-Apr-25 17:00 281 6 11.1
2017-Apr-25 16:45 280 5 10.6
2017-Apr-25 16:30 312 7 10.6
2017-Apr-25 16:15 300 6 10.6
2017-Apr-25 16:00 306 8 10.6